Tracking 29892 objects as of 21-Nov-2024
HD Live streaming from Space Station
objects crossing your sky now

SL-12 R/B(2)

Track SL-12 R/B(2) now!


NORAD ID: 34265
Int'l Code: 2009-010B
Perigee: 35,861.8 km
Apogee: 35,873.4 km
Inclination: 11.0 °
Period: 1,439.9 minutes
Semi major axis: 42238 km
RCS: 1.2589 m2 (large)
Launch date: February 28, 2009
Source: Commonwealth of Independent States (former USSR) (CIS)
Launch site: TYURATAM MISSILE AND SPACE COMPLEX (TTMTR)

Note: This is a ROCKET BODY
Your satellite tracking list
Your tracking list is empty




NASA's NSSDC Master Catalog

Two Line Element Set (TLE):
1 34265U 09010B   24325.94336372  .00000096  00000-0  00000+0 0  9997
2 34265  10.9805  46.8689 0001372 257.0334 120.6764  1.00008954 57446
Source of the keplerian elements: AFSPC